Weather History for KAXA - February, 2011

Change the Weather History Date:

Monday, February 28, 2011

  Actual Average Record
Temperature  
Mean Temperature 19 °F -  
Max Temperature 30 °F 30 °F 46 °F (2004)
Min Temperature 8 °F 16 °F -7 °F (2015)
Degree Days  
Heating Degree Days 46    
Moisture  
Dew Point 12 °F    
Average Humidity 79    
Maximum Humidity 86    
Minimum Humidity 68    
Precipitation  
Precipitation 0.00 in - - ()
Sea Level Pressure  
Sea Level Pressure 30.09 in    
Wind  
Wind Speed 8 mph (NNW)    
Max Wind Speed 13 mph    
Max Gust Speed -    
Visibility 10 miles    
Events      
Averages and records for this station are not official NWS values.
T = Trace of Precipitation, MM = Missing Value Source: NWS Daily Summary

Daily Weather History Graph

Daily Weather History Graph

Search for Another Location

Airport or City:

Trip Planner

Search our weather history database for the weather conditions in past years. The results will help you decide how hot, cold, wet, or windy it might be!

Date:

Astronomy

Feb. 28, 2011 Rise Set
Actual Time 6:55 AM CST 6:04 PM CST
Civil Twilight 6:26 AM CST 6:33 PM CST
Nautical Twilight 5:53 AM CST 7:06 PM CST
Astronomical Twilight 5:20 AM CST 7:39 PM CST
Moon 4:33 AM CST (2/28) 2:15 PM CST (2/28)
Length of Visible Light 12h 06m
Length of Day
11h 09m
Waning Crescent, 15% of the Moon is Illuminated
Feb 28
Waning Crescent
Mar 4
New
Mar 12
First Quarter
Mar 19
Full
Mar 26
Last Quarter

Hourly Weather History & Observations

Time (CST) Temp. Windchill Dew Point Humidity Pressure Visibility Wind Dir Wind Speed Gust Speed Precip Events Conditions
12:15 AM 14.0 °F 2.9 °F 10.4 °F 86% 29.89 in 10.0 mi NNW 8.1 mph - N/A   Clear
12:35 AM 14.0 °F 2.9 °F 10.4 °F 86% 29.90 in 10.0 mi North 8.1 mph - N/A   Clear
12:55 AM 14.0 °F 2.0 °F 10.4 °F 86% 29.91 in 10.0 mi North 9.2 mph - N/A   Clear
1:15 AM 14.0 °F 1.2 °F 10.4 °F 86% 29.91 in 10.0 mi NNW 10.4 mph - N/A   Clear
1:35 AM 14.0 °F 1.2 °F 10.4 °F 86% 29.92 in 10.0 mi NNW 10.4 mph - N/A   Clear
1:55 AM 14.0 °F 1.2 °F 10.4 °F 86% 29.92 in 10.0 mi NNW 10.4 mph - N/A   Clear
2:15 AM 14.0 °F 1.2 °F 8.6 °F 79% 29.93 in 10.0 mi North 10.4 mph - N/A   Clear
2:35 AM 12.2 °F -1.8 °F 8.6 °F 85% 29.94 in 10.0 mi North 11.5 mph - N/A   Clear
2:55 AM 12.2 °F -2.5 °F 8.6 °F 85% 29.94 in 10.0 mi North 12.7 mph - N/A   Clear
3:15 AM 12.2 °F -1.8 °F 8.6 °F 85% 29.95 in 10.0 mi North 11.5 mph - N/A   Clear
3:35 AM 12.2 °F -1.8 °F 6.8 °F 79% 29.96 in 10.0 mi North 11.5 mph - N/A   Clear
3:55 AM 12.2 °F -1.8 °F 6.8 °F 79% 29.97 in 10.0 mi NNW 11.5 mph - N/A   Clear
4:15 AM 10.4 °F -3.3 °F 6.8 °F 85% 29.98 in 10.0 mi NNW 10.4 mph - N/A   Clear
4:35 AM 10.4 °F -3.3 °F 6.8 °F 85% 30.00 in 10.0 mi North 10.4 mph - N/A   Clear
4:55 AM 10.4 °F -4.1 °F 6.8 °F 85% 30.01 in 10.0 mi NNW 11.5 mph - N/A   Clear
5:15 AM 10.4 °F -3.3 °F 6.8 °F 85% 30.02 in 10.0 mi NNW 10.4 mph - N/A   Clear
5:35 AM 10.4 °F -4.1 °F 5.0 °F 79% 30.04 in 10.0 mi NNW 11.5 mph - N/A   Clear
5:55 AM 10.4 °F -3.3 °F 5.0 °F 79% 30.05 in 10.0 mi NNW 10.4 mph - N/A   Clear
6:15 AM 8.6 °F -3.7 °F 5.0 °F 85% 30.06 in 10.0 mi NNW 8.1 mph - N/A   Clear
6:35 AM 8.6 °F -4.7 °F 5.0 °F 85% 30.07 in 10.0 mi NNW 9.2 mph - N/A   Clear
6:55 AM 8.6 °F -4.7 °F 5.0 °F 85% 30.07 in 10.0 mi NNW 9.2 mph - N/A   Clear
7:15 AM 8.6 °F -5.5 °F 3.2 °F 79% 30.08 in 10.0 mi NNW 10.4 mph - N/A   Clear
7:35 AM 8.6 °F -4.7 °F 5.0 °F 85% 30.11 in 10.0 mi NW 9.2 mph - N/A   Clear
7:55 AM 8.6 °F -2.6 °F 5.0 °F 85% 30.13 in 10.0 mi NNW 6.9 mph - N/A   Clear
8:15 AM 10.4 °F 0.8 °F 5.0 °F 79% 30.14 in 10.0 mi NNW 5.8 mph - N/A   Clear
8:35 AM 10.4 °F 0.8 °F 5.0 °F 79% 30.15 in 10.0 mi NNW 5.8 mph - N/A   Clear
8:55 AM 12.2 °F 1.7 °F 6.8 °F 79% 30.16 in 10.0 mi North 6.9 mph - N/A   Clear
9:15 AM 12.2 °F 0.7 °F 8.6 °F 85% 30.16 in 10.0 mi North 8.1 mph - N/A   Clear
9:35 AM 14.0 °F 3.9 °F 8.6 °F 79% 30.17 in 10.0 mi North 6.9 mph - N/A   Clear
9:55 AM 14.0 °F 8.2 °F 8.6 °F 79% 30.17 in 10.0 mi North 3.5 mph - N/A   Clear
10:15 AM 15.8 °F 8.6 °F 8.6 °F 73% 30.19 in 10.0 mi NW 4.6 mph - N/A   Clear
10:35 AM 15.8 °F 8.6 °F 10.4 °F 79% 30.19 in 10.0 mi North 4.6 mph - N/A   Clear
10:55 AM 17.6 °F 9.3 °F 10.4 °F 73% 30.18 in 10.0 mi North 5.8 mph - N/A   Clear
11:15 AM 17.6 °F 9.3 °F 10.4 °F 73% 30.18 in 10.0 mi North 5.8 mph - N/A   Clear
11:35 AM 19.4 °F 14.3 °F 10.4 °F 68% 30.19 in 10.0 mi NNE 3.5 mph - N/A   Clear
11:55 AM 19.4 °F 14.3 °F 12.2 °F 74% 30.19 in 10.0 mi North 3.5 mph - N/A   Clear
12:15 PM 19.4 °F 14.3 °F 12.2 °F 74% 30.19 in 10.0 mi West 3.5 mph - N/A   Clear
12:35 PM 21.2 °F 16.4 °F 14.0 °F 74% 30.19 in 10.0 mi West 3.5 mph - N/A   Clear
12:55 PM 21.2 °F 16.4 °F 14.0 °F 74% 30.19 in 10.0 mi West 3.5 mph - N/A   Clear
1:15 PM 23.0 °F 17.0 °F 15.8 °F 74% 30.18 in 10.0 mi West 4.6 mph - N/A   Clear
1:35 PM 23.0 °F - 15.8 °F 74% 30.17 in 10.0 mi Calm Calm - N/A   Clear
1:55 PM 23.0 °F - 15.8 °F 74% 30.17 in 10.0 mi Calm Calm - N/A   Clear
2:15 PM 24.8 °F - 17.6 °F 74% 30.16 in 10.0 mi Calm Calm - N/A   Clear
2:35 PM 26.6 °F 21.2 °F 17.6 °F 69% 30.16 in 10.0 mi South 4.6 mph - N/A   Clear
2:55 PM 26.6 °F 19.1 °F 17.6 °F 69% 30.16 in 10.0 mi South 6.9 mph - N/A   Clear
3:15 PM 26.6 °F 19.1 °F 17.6 °F 69% 30.15 in 10.0 mi South 6.9 mph - N/A   Clear
3:35 PM 28.4 °F 20.4 °F 19.4 °F 69% 30.15 in 10.0 mi South 8.1 mph - N/A   Clear
3:55 PM 28.4 °F 19.7 °F 21.2 °F 74% 30.15 in 10.0 mi SSE 9.2 mph - N/A   Clear
4:15 PM 28.4 °F 18.5 °F 21.2 °F 74% 30.16 in 10.0 mi South 11.5 mph - N/A   Clear
4:35 PM 30.2 °F 20.8 °F 23.0 °F 75% 30.14 in 10.0 mi South 11.5 mph - N/A   Clear
4:55 PM 30.2 °F 21.3 °F 23.0 °F 75% 30.15 in 10.0 mi South 10.4 mph - N/A   Clear
5:15 PM 30.2 °F 21.9 °F 23.0 °F 75% 30.15 in 10.0 mi South 9.2 mph - N/A   Clear
5:35 PM 30.2 °F 21.9 °F 24.8 °F 80% 30.16 in 10.0 mi South 9.2 mph - N/A   Clear
5:55 PM 28.4 °F 19.7 °F 24.8 °F 86% 30.15 in 10.0 mi South 9.2 mph - N/A   Clear
6:15 PM 28.4 °F 19.1 °F 24.8 °F 86% 30.14 in 10.0 mi South 10.4 mph - N/A   Clear
6:35 PM 30.2 °F 20.8 °F 26.6 °F 86% 30.14 in 10.0 mi South 11.5 mph - N/A   Clear
6:55 PM 30.2 °F 20.8 °F 26.6 °F 86% 30.13 in 10.0 mi South 11.5 mph - N/A   Clear
7:15 PM 30.2 °F 20.8 °F 24.8 °F 80% 30.13 in 10.0 mi South 11.5 mph - N/A   Clear
7:35 PM 30.2 °F 20.8 °F 24.8 °F 80% 30.12 in 10.0 mi SSE 11.5 mph 16.1 mph N/A   Clear
7:55 PM 30.2 °F 20.8 °F 24.8 °F 80% 30.12 in 10.0 mi SSE 11.5 mph - N/A   Clear
8:15 PM 30.2 °F 19.8 °F 24.8 °F 80% 30.12 in 10.0 mi SSE 13.8 mph - N/A   Clear
8:35 PM 30.2 °F 19.8 °F 24.8 °F 80% 30.12 in 10.0 mi South 13.8 mph - N/A   Clear
8:55 PM 30.2 °F 19.3 °F 26.6 °F 86% 30.11 in 10.0 mi South 15.0 mph - N/A   Clear
9:15 PM 30.2 °F 18.9 °F 26.6 °F 86% 30.10 in 10.0 mi South 16.1 mph - N/A   Clear
9:35 PM 30.2 °F 18.1 °F 26.6 °F 86% 30.10 in 10.0 mi South 18.4 mph - N/A   Clear
10:15 PM 30.2 °F 17.4 °F 26.6 °F 86% 30.08 in 10.0 mi South 20.7 mph - N/A   Clear
10:35 PM 30.2 °F 17.4 °F 26.6 °F 86% 30.08 in 10.0 mi South 20.7 mph 26.5 mph N/A   Clear
10:55 PM 30.2 °F 17.8 °F 26.6 °F 86% 30.08 in 10.0 mi South 19.6 mph - N/A   Clear
11:15 PM 30.2 °F 17.8 °F 24.8 °F 80% 30.06 in 10.0 mi South 19.6 mph - N/A   Clear
11:35 PM 30.2 °F 17.8 °F 23.0 °F 75% 30.06 in 10.0 mi South 19.6 mph - N/A   Clear
11:55 PM 28.4 °F 15.8 °F 23.0 °F 80% 30.06 in 10.0 mi South 18.4 mph - N/A   Clear